Location: Days
(41.3591°N, 106.7339°W)
Time: 05:29:24
(UTC+00:00)

First-Move - Pass Details

Date: 05 July 2022
Orbit: 572 x 658 km, 97.6° (Epoch: 11 August)

Event Time Altitude Azimuth Distance (km) Brightness Sun altitude
Rises 10:17:20 0° 26° (NNE) 2,970 ? -12.8°
Reaches altitude 10° 10:19:56 10° 40° (NE) 2,065 ? -12.4°
Maximum altitude 10:23:34 24° 94° (E) 1,369 ? -12.0°
Drops below altitude 10° 10:27:12 10° 148° (SSE) 2,067 ? -11.5°
Sets 10:29:48 0° 162° (SSE) 2,974 ? -11.1°
